カタログに戻る

CZ-6A DEB

運用中PO
NORAD 60770·DEBRIS·🇨🇳 China

打ち上げ Aug 6, 2024 から Taiyuan Satellite Launch Center

Loading…

次のパス (今後24時間)

TLE

最新Source: Space-Track

元期: Sep 14, 2026, 18:19 UTC

1 60770U 24140EV  26257.76349906  .00000400  00000-0  12802-3 0  9997
2 60770  89.0164 264.0306 0035164   0.1423 359.9781 14.37424649107879

AllMySatでCZ-6A DEBをリアルタイム追跡

Download on the App Store